View from above orbital plane
|
View from above satellite
|
Ground track
|
The orbit data is extracted from the following two-line orbital elements,
1 14064U 83044A 21058.70972447 .00000488 00000-0 53661-4 0 9995
2 14064 65.0001 58.2995 0114983 235.6351 123.3848 14.95073118925305
Epoch (UTC): | 27 February 2021 17:02:00 |
Eccentricity: | 0.0114983 |
inclination: | 65.0001° |
perigee height: | 502 km |
apogee height: | 662 km |
right ascension of ascending node: | 58.2995° |
argument of perigee: | 235.6351° |
revolutions per day: | 14.95073118 |
mean anomaly at epoch: | 123.3848° |
orbit number at epoch: | 92530 |
The dashed part of the orbit path shows where the satellite is in the earth's shadow,
|
|